Location: Phoenix
(33.4480°N, 112.0730°W)
Time: 16:25:02
(UTC-07:00)

ISS - All Passes

Search period start: 31 July 2015 00:00
Search period end: 10 August 2015 00:00
Orbit: 401 x 403 km, 51.6° (Epoch: 31 July)

Date Brightness Start Highest point End Pass type
(mag) Time Alt. Az. Time Alt. Az. Time Alt. Az.
31 Jul - 03:19:59 10° N 03:21:58 15° NNE 03:24:00 10° ENE visible
31 Jul - 04:55:27 10° WNW 04:58:38 50° SW 05:01:47 10° SSE visible
31 Jul - 19:55:43 10° SSW 19:58:37 31° SE 20:01:34 10° ENE visible
31 Jul - 21:32:35 10° W 21:35:07 20° NW 21:37:35 10° NNE visible
01 Aug - 04:02:26 10° NW 04:05:41 68° NE 04:08:55 10° SE visible
01 Aug - 19:03:57 10° SSE 19:05:46 14° SE 19:07:41 10° E daylight
01 Aug - 20:38:55 10° WSW 20:41:58 37° NW 20:45:03 10° NNE visible
02 Aug - 03:09:40 10° NNW 03:12:38 31° NE 03:15:35 10° ESE visible
02 Aug - 04:46:35 10° W 04:48:54 18° SW 04:51:09 10° S visible
02 Aug - 19:45:42 10° SW 19:48:56 85° NW 19:52:12 10° NE daylight
02 Aug - 21:25:02 10° NW 21:25:51 11° NNW 21:26:34 10° NNW visible
03 Aug - 02:17:11 10° NNW 02:19:27 17° NNE 02:21:45 10° ENE night (unlit)
03 Aug - 03:52:56 10° WNW 03:56:01 39° SW 03:59:04 10° SSE night (unlit)
03 Aug - 18:52:57 10° SSW 18:55:59 39° SE 18:59:03 10° ENE daylight
03 Aug - 20:30:16 10° WNW 20:32:34 17° NNW 20:34:49 10° NNE visible
04 Aug - 01:25:26 10° NNE 01:26:10 11° NNE 01:26:59 10° NE night (unlit)
04 Aug - 02:59:48 10° NW 03:03:04 85° NE 03:06:19 10° SE night (unlit)
04 Aug - 18:00:52 10° S 18:03:06 18° SE 18:05:25 10° E daylight
04 Aug - 19:36:26 10° WSW 19:39:22 31° NW 19:42:19 10° NNE daylight
05 Aug - 02:06:57 10° NNW 02:10:00 37° NE 02:13:04 10° ESE night (unlit)
05 Aug - 03:44:18 10° W 03:46:13 14° SW 03:48:02 10° SSW night (unlit)
05 Aug - 18:43:04 10° SW 18:46:17 68° NW 18:49:32 10° NE daylight
06 Aug - 01:14:21 10° NNW 01:16:50 20° NE 01:19:22 10° E night (unlit)
06 Aug - 02:50:23 10° WNW 02:53:19 31° SW 02:56:14 10° SSE night (unlit)
06 Aug - 17:50:09 10° SSW 17:53:17 50° SE 17:56:27 10° ENE daylight
06 Aug - 19:27:55 10° WNW 19:29:56 15° NNW 19:31:55 10° N daylight
07 Aug - 00:22:13 10° N 00:23:33 12° NNE 00:24:58 10° NE night (unlit)
07 Aug - 01:57:07 10° NW 02:00:22 76° SW 02:03:36 10° SE night (unlit)
07 Aug - 16:57:48 10° S 17:00:21 22° SE 17:02:56 10° ENE daylight
07 Aug - 18:33:53 10° W 18:36:42 26° NW 18:39:30 10° NNE daylight
08 Aug - 01:04:10 10° NW 01:07:18 46° NE 01:10:27 10° ESE night (unlit)
08 Aug - 02:42:09 10° WSW 02:43:28 12° SW 02:44:39 10° SSW night (unlit)
08 Aug - 17:40:22 10° WSW 17:43:33 54° NW 17:46:45 10° NE daylight
09 Aug - 00:11:28 10° NNW 00:14:08 23° NE 00:16:50 10° E night (unlit)
09 Aug - 01:47:46 10° WNW 01:50:33 25° SW 01:53:16 10° S night (unlit)
09 Aug - 16:47:18 10° SW 16:50:30 63° SE 16:53:43 10° NE daylight
09 Aug - 18:25:32 10° WNW 18:27:14 13° NNW 18:28:53 10° N daylight
09 Aug - 23:19:07 10° N 23:20:51 14° NNE 23:22:39 10° ENE visible
